Location: Kershaw
(34.5481°N, 80.5823°W)
Time: 07:14:57
(UTC+00:00)

Explorer 7 - Pass Details

Date: 09 October 2022
Orbit: 481 x 665 km, 50.3° (Epoch: 28 November)

Event Time Altitude Azimuth Distance (km) Brightness Sun altitude
Rises 18:13:09 0° 317° (NW) 2,991 10.4 46.3°
Reaches altitude 10° 18:16:09 10° 336° (NNW) 2,060 9.6 46.1°
Maximum altitude 18:19:32 19° 21° (NNE) 1,527 8.9 45.8°
Drops below altitude 10° 18:22:49 10° 66° (ENE) 1,995 9.4 45.5°
Sets 18:25:40 0° 85° (E) 2,863 10.2 45.2°
